Wind_Speed
9 9 9 9 8 8 8 8 9 8 8 8 7 7 8 8 8 8 8 8 8 9 9 8 9 9 8 8 7 6 6 6 6 7 8 9 9 10 11 11 11 11 11 12 11 11 10 8 8 8 9 10 11 12 14 16 17 18 19 19 20 20 20 19 19 18 18 18 18 17 17 17 17 17
10 10 10 10 9 9 9 9 9 9 8 9 8 8 7 8 7 7 7 7 8 9 9 9 9 9 9 8 7 7 7 6 7 7 8 9 9 10 10 11 11 12 12 12 11 10 9 9 9 9 10 10 11 12 13 14 15 16 17 18 19 19 19 19 18 18 17 17 17 16 15 15 15 15
9 9 9 9 9 10 10 10 10 8 8 8 8 8 7 7 7 7 7 7 7 8 9 10 9 9 9 8 7 7 7 6 6 7 8 8 8 9 9 11 12 12 12 12 11 10 9 9 9 10 10 10 10 11 12 13 14 15 16 17 18 18 18 18 18 17 17 16 15 15 15 14 13 13
9 9 9 9 10 11 11 11 10 9 8 8 8 8 8 8 8 8 8 8 9 9 9 10 9 8 8 8 7 6 6 6 6 7 8 8 8 9 10 11 12 12 12 12 11 9 9 8 8 8 9 9 9 10 11 12 13 14 15 15 16 17 17 16 16 16 16 16 15 14 14 13 13 12
8 9 9 9 10 11 12 12 12 11 11 10 10 9 9 10 10 10 9 8 9 9 9 9 9 8 8 8 8 7 6 6 6 7 8 8 9 10 10 11 12 13 13 12 11 10 9 8 8 8 8 8 8 10 11 12 12 13 13 14 14 15 16 15 15 15 15 15 15 14 12 12 12 11
9 9 9 9 9 10 10 11 11 11 11 11 11 10 10 10 11 11 10 9 9 9 9 9 9 9 8 8 8 8 7 7 7 7 8 8 9 10 11 11 12 12 13 13 13 11 10 10 9 9 9 9 9 10 11 12 12 12 12 12 13 13 14 14 14 14 14 14 14 14 12 11 11 10
9 9 10 10 10 10 10 10 10 10 10 10 10 10 10 10 10 10 10 10 10 9 9 10 10 9 9 10 9 8 9 9 8 8 8 8 9 11 12 11 12 12 13 13 13 13 13 12 12 11 11 12 12 12 13 13 12 12 12 12 12 11 12 13 13 14 14 13 13 13 12 12 10 9
10 10 10 10 11 11 11 11 10 10 9 9 9 10 10 10 11 11 11 11 11 11 10 10 10 10 10 10 11 10 10 10 10 10 10 10 10 12 12 12 12 12 12 12 13 14 13 13 13 13 13 13 14 14 14 14 13 13 12 11 11 10 10 11 12 12 13 13 13 12 12 12 11 10
11 11 11 12 12 12 12 12 11 11 11 10 11 11 11 11 12 12 12 12 12 11 11 11 11 11 11 11 11 11 11 11 11 11 11 12 13 13 13 11 12 13 12 12 12 12 12 12 13 13 13 13 14 14 14 14 13 13 12 11 10 10 10 11 12 12 12 12 12 12 11 11 11 10
13 13 13 14 14 14 14 14 14 13 13 13 13 14 13 13 13 13 13 13 12 12 12 12 12 12 13 13 12 12 13 14 14 13 11 11 13 15 15 13 12 13 13 12 11 11 10 11 12 13 13 13 13 13 14 14 13 13 12 11 10 10 10 11 11 12 12 12 11 11 10 10 9 9
16 16 16 16 16 16 16 15 16 16 15 15 15 15 15 15 14 14 13 13 14 14 14 14 14 13 13 13 13 13 15 16 17 17 15 12 12 14 16 15 13 13 14 13 10 10 10 11 11 12 13 13 13 13 13 13 13 13 12 11 10 10 10 10 10 11 12 12 12 11 10 9 9 9
16 17 17 18 18 18 18 18 18 18 18 18 17 17 17 16 16 15 15 15 15 16 15 15 15 14 13 13 14 14 15 16 16 18 18 16 13 12 14 16 14 13 15 14 12 10 10 10 11 12 12 12 12 12 12 12 12 12 11 11 10 10 9 9 9 10 10 11 12 12 12 11 10 9
16 17 18 18 19 19 19 20 20 20 21 21 21 20 19 19 18 18 18 17 17 18 17 16 16 14 13 13 13 14 15 15 15 16 17 17 15 13 13 15 16 14 15 16 15 13 13 12 12 12 12 12 12 12 12 12 11 11 11 11 11 10 10 10 10 9 9 10 11 11 12 13 12 11
17 17 18 18 19 19 19 20 21 21 22 22 23 23 22 22 21 21 20 20 20 20 19 19 18 17 14 13 14 15 15 15 15 16 16 17 16 14 13 15 16 15 14 15 16 16 15 15 15 14 14 14 14 13 12 12 11 11 11 11 11 11 11 11 11 10 10 10 10 10 11 11 12 13
17 18 18 18 18 19 20 21 21 22 22 23 23 24 23 23 23 23 23 23 22 22 22 21 20 19 18 16 15 17 18 17 16 16 16 17 17 16 16 16 17 16 15 15 16 16 16 16 16 16 16 16 15 15 14 13 12 11 11 11 11 11 11 11 11 11 11 11 10 10 10 10 11 12
17 17 18 18 18 19 20 21 22 23 23 24 24 24 25 24 24 24 25 24 24 24 23 22 21 20 19 18 17 18 20 20 19 18 17 18 18 17 17 17 19 18 16 16 17 18 17 17 17 17 17 17 17 16 16 15 14 13 13 12 12 12 11 11 12 12 12 11 11 11 11 10 10 11
19 19 19 19 19 20 21 22 23 24 24 25 25 26 26 26 25 26 26 26 26 26 25 24 23 21 20 20 19 19 20 22 22 21 19 18 18 18 17 18 19 20 19 18 19 20 19 18 18 18 17 17 17 16 16 16 16 15 15 14 14 13 13 13 13 13 13 12 12 12 12 11 11 11
22 21 20 20 22 23 24 25 26 26 26 26 26 26 26 26 27 27 27 27 27 27 27 26 25 24 22 22 21 21 21 22 23 23 21 19 18 18 18 19 20 21 21 21 21 22 21 19 19 19 18 17 17 16 16 16 16 16 16 16 15 15 14 14 14 14 14 14 14 13 13 13 12 11
25 24 24 24 26 27 28 29 29 29 30 30 29 27 26 25 26 27 27 28 27 28 28 27 28 27 25 24 23 23 23 23 23 24 23 22 21 20 20 20 20 21 22 23 23 24 24 22 20 20 19 18 17 17 17 17 17 17 17 16 16 16 15 15 15 15 15 15 15 14 14 13 13 12
28 29 28 28 28 31 33 33 32 32 32 32 32 30 28 26 26 26 28 29 29 28 28 28 28 29 28 27 25 25 25 26 26 26 26 25 24 24 24 23 22 23 24 24 24 25 25 24 22 22 21 19 18 18 18 18 18 18 17 17 16 16 16 16 15 15 15 15 15 15 15 14 13 13
30 30 31 31 33 35 36 36 36 36 34 33 33 33 32 30 29 27 28 30 30 30 29 29 29 29 29 29 27 26 27 28 29 29 29 29 27 27 26 25 25 26 26 25 25 25 25 25 24 23 23 21 19 18 19 19 19 18 17 17 16 16 16 16 16 16 16 17 17 17 17 16 16 15
32 32 33 34 36 37 37 37 39 40 38 37 37 36 35 34 32 30 30 30 30 31 30 30 29 29 30 30 29 28 28 29 30 31 31 30 29 28 28 27 26 27 27 26 25 24 24 25 24 23 23 22 20 19 19 19 19 18 18 17 17 17 17 17 17 18 18 19 19 20 20 20 20 19
35 35 36 38 39 40 41 41 41 41 41 41 40 38 37 36 35 33 33 32 31 32 31 30 30 30 31 31 30 29 29 30 30 31 31 31 31 30 29 29 28 28 28 27 25 23 23 23 23 23 22 22 21 20 19 19 20 19 19 18 19 19 19 19 20 20 21 21 21 21 22 23 23 23
37 36 37 38 39 39 40 42 43 42 40 41 41 40 38 38 37 35 34 34 33 32 32 31 30 30 31 32 31 30 30 31 31 31 32 32 32 32 32 31 30 29 29 28 26 24 23 23 23 23 23 23 23 22 22 22 22 22 22 22 22 22 22 23 23 23 23 23 22 22 23 23 24 24
37 35 35 35 36 36 37 39 40 39 38 38 40 41 41 39 37 35 35 35 35 34 33 34 32 32 32 33 32 32 31 32 32 32 33 33 33 33 33 32 31 29 28 28 27 25 24 24 24 24 24 25 25 25 25 26 26 26 26 26 26 26 26 26 26 26 26 26 25 25 25 25 26 27
39 37 36 35 34 34 34 36 37 35 36 36 37 39 41 40 38 37 36 35 35 34 35 37 36 33 33 34 34 34 33 33 34 34 34 34 35 35 34 33 32 30 29 29 28 26 25 25 25 25 26 27 27 28 29 29 30 30 29 29 29 30 29 29 29 29 30 30 30 30 29 29 29 30
37 36 34 32 29 28 30 36 37 33 30 31 30 31 33 35 35 35 34 34 35 34 34 36 37 35 34 34 35 36 35 35 35 35 36 36 36 36 35 34 32 32 31 30 29 28 27 26 26 27 27 28 29 30 31 32 32 33 32 32 31 32 32 32 32 32 33 33 34 34 34 34 34 34
33 33 31 28 28 30 32 35 37 30 24 25 26 26 27 28 29 30 31 32 33 32 31 33 34 33 34 35 36 37 38 37 37 37 38 39 39 37 36 35 33 33 32 32 32 31 30 29 29 29 29 30 31 31 32 33 33 34 35 35 34 34 34 35 35 35 36 36 37 37 37 38 38 39
33 33 31 28 31 35 33 28 27 26 25 26 26 26 28 30 30 31 32 32 30 28 28 32 33 32 32 34 36 39 40 39 38 38 40 40 39 38 37 35 35 34 34 34 34 33 32 32 31 30 30 30 31 32 33 33 34 34 36 37 37 37 37 37 37 38 39 39 40 40 41 41 41 42
33 33 33 32 34 38 34 27 26 28 29 28 27 27 30 33 33 32 31 31 30 28 29 32 34 34 35 37 39 40 40 39 38 40 41 40 38 38 38 37 36 37 37 36 35 34 34 34 33 33 33 32 33 33 34 35 36 36 37 38 39 39 39 40 40 40 41 42 43 43 44 44 44 45
34 33 34 34 36 40 40 39 39 38 34 32 31 31 32 33 33 33 32 31 32 33 34 35 36 37 40 42 42 41 41 39 39 40 40 39 38 38 38 38 38 39 39 38 36 36 36 35 36 36 36 36 36 37 38 38 39 40 40 40 41 41 41 42 43 43 44 44 45 46 47 47 48 48
35 35 35 36 37 40 42 44 44 42 38 34 33 33 33 33 33 32 32 32 33 34 36 37 38 39 42 43 43 43 42 41 41 41 41 40 39 39 39 39 40 40 39 38 38 38 38 38 38 39 39 40 40 41 41 42 42 42 43 43 43 43 43 44 45 45 46 47 47 48 50 51 52 52
37 37 38 38 38 39 42 43 43 43 41 39 37 37 37 38 37 35 34 34 35 36 38 39 40 41 42 44 45 46 46 46 46 46 46 45 43 41 40 40 40 40 40 40 40 40 41 41 42 42 43 43 43 44 44 44 44 45 45 45 46 46 46 47 48 48 49 50 50 51 53 54 55 56
41 40 40 40 41 41 42 43 43 42 41 40 38 37 37 38 39 39 37 37 37 38 39 41 42 43 43 44 46 47 48 49 50 50 50 49 47 43 40 40 41 41 41 42 43 43 43 44 44 45 45 45 45 46 47 47 47 48 48 49 50 50 51 52 52 53 54 54 55 55 56 57 58 59
45 45 45 44 44 44 44 44 44 43 42 40 38 36 35 35 36 37 38 39 39 39 40 42 44 46 46 47 48 50 50 51 52 51 50 49 47 44 42 42 43 44 44 45 45 45 45 46 46 47 47 48 49 50 51 52 52 52 53 53 54 55 55 56 56 57 58 59 59 60 60 60 60 61
48 48 48 48 48 47 46 45 44 44 43 42 41 39 38 37 37 38 38 40 40 39 39 41 44 47 49 50 51 51 50 49 49 48 48 47 47 46 45 45 46 46 47 47 47 47 47 48 49 50 51 52 53 54 55 56 57 57 57 58 58 59 59 59 60 61 62 62 63 63 63 62 62 62
50 50 50 51 51 50 49 48 48 47 46 45 44 43 42 41 42 42 41 41 41 42 42 42 43 45 48 49 49 48 47 46 46 46 46 47 47 47 47 47 48 48 48 49 49 50 51 52 53 54 54 54 55 55 56 58 60 60 61 61 61 62 62 63 64 65 65 65 65 65 64 64 64 64
53 53 53 53 53 52 52 52 51 50 49 48 47 46 45 44 45 45 45 44 45 45 45 45 45 46 47 48 49 49 49 48 47 46 46 46 47 48 49 50 51 51 52 53 54 55 55 56 57 57 57 57 57 57 57 58 60 62 63 64 64 64 65 66 66 67 67 67 67 67 67 67 67 67
57 57 56 56 55 55 54 54 53 53 52 51 50 49 48 47 47 47 47 47 47 46 46 47 48 49 49 49 50 50 50 49 48 48 48 49 51 52 53 54 55 56 57 57 58 58 59 59 59 59 60 60 60 60 60 61 62 63 65 66 66 67 67 67 67 67 68 68 68 68 69 69 70 70
59 59 59 59 59 58 58 57 56 56 55 54 53 52 51 51 50 49 48 47 47 48 49 49 50 51 51 51 50 50 50 50 51 52 53 54 55 55 56 57 58 58 59 60 60 61 61 61 61 62 62 62 63 63 64 64 65 66 67 68 68 69 69 69 69 69 70 70 70 71 72 72 73 73
61 61 61 61 61 61 61 60 60 59 58 56 55 54 54 53 53 52 52 51 51 51 51 51 52 53 53 54 54 55 56 57 57 57 56 57 57 58 58 59 59 60 61 62 62 63 63 63 63 64 64 65 66 66 67 68 68 69 70 70 71 71 71 72 72 72 72 72 72 73 73 74 74 75
62 62 62 62 61 61 62 62 62 62 61 60 59 58 57 56 56 56 57 57 57 57 57 56 55 55 56 56 58 59 61 62 62 62 61 60 60 60 61 61 62 63 63 64 65 65 65 65 66 67 67 68 69 70 70 71 71 71 72 72 73 73 74 74 74 75 75 75 75 75 75 76 76 77
62 62 62 63 63 62 62 62 62 63 63 63 63 62 61 60 60 60 60 60 61 62 62 62 61 61 61 61 62 62 63 64 65 65 65 64 64 64 64 65 65 66 66 67 67 68 68 68 69 70 70 71 71 72 73 73 73 74 74 74 75 75 76 76 77 78 78 78 78 78 78 78 78 78
62 62 62 62 62 63 63 62 62 62 62 63 63 63 63 63 63 62 62 63 63 63 64 64 64 65 65 66 66 67 67 68 68 68 69 69 69 69 69 69 69 69 69 69 69 70 70 70 71 72 72 73 73 73 74 74 75 75 76 76 76 76 77 77 78 79 79 79 79 79 79 79 78 79
63 62 62 62 62 62 62 62 62 62 62 62 62 62 63 63 63 63 63 64 65 65 65 65 66 66 67 67 67 67 67 67 68 68 69 69 69 69 69 69 69 69 69 70 70 70 71 72 72 73 73 73 74 74 75 76 76 76 77 77 77 77 78 78 78 78 78 79 78 78 78 78 78 78
Wind_Direction
273 276 279 282 287 292 294 296 299 303 307 309 314 322 329 334 341 347 346 343 342 346 357 5 6 9 10 9 8 6 4 2 0 358 356 356 357 354 349 348 349 353 1 9 10 7 4 359 1 2 5 15 17 18 27 25 23 25 24 24 24 22 24 29 29 30 33 33 35 38 43 45 45 51
276 276 278 281 284 288 290 291 292 295 297 298 301 309 316 320 326 336 336 334 335 339 347 356 0 358 355 356 1 4 6 5 2 1 359 1 2 357 349 347 352 358 6 12 14 12 8 5 7 8 8 14 15 17 26 26 24 26 25 24 24 21 23 27 29 30 31 33 34 35 39 44 46 45
277 277 277 279 281 284 286 285 286 289 291 291 293 297 302 307 313 320 321 321 325 330 334 338 344 346 342 345 356 3 3 3 2 2 3 4 1 354 347 347 352 358 6 13 17 17 14 13 13 11 9 11 12 15 22 24 24 26 26 25 24 20 20 25 28 30 31 32 33 34 35 39 45 48
276 277 277 277 276 277 280 282 283 284 284 286 290 295 298 300 301 305 308 312 318 322 322 323 329 338 339 340 351 3 2 359 360 1 0 358 354 347 344 348 352 355 1 9 13 17 19 19 17 13 10 9 9 13 19 21 22 24 24 24 24 20 17 21 26 28 30 31 31 32 33 34 38 44
269 271 271 270 269 272 278 283 286 288 288 287 288 290 293 293 294 299 305 309 312 314 316 317 321 331 334 332 339 349 349 350 355 354 351 349 345 337 339 350 353 352 356 2 5 10 18 22 17 10 7 6 5 9 15 17 19 21 22 22 23 20 16 18 23 25 27 28 30 30 31 32 33 36
262 265 267 270 273 279 285 289 291 291 291 291 290 289 289 291 294 299 305 308 309 312 317 319 323 329 328 323 326 331 332 336 343 343 338 340 337 329 335 352 352 348 354 357 357 0 7 13 11 3 360 359 360 4 7 9 12 14 16 19 21 19 15 16 20 22 23 24 25 27 28 29 29 30
262 267 271 275 279 284 287 289 290 292 293 295 296 295 295 295 297 301 304 308 312 317 321 322 324 325 321 317 317 319 319 322 327 328 326 330 331 325 332 347 346 345 352 351 348 353 357 0 0 356 354 352 353 356 358 0 3 5 7 11 13 13 12 13 17 20 21 20 20 20 23 25 25 25
266 269 271 274 277 279 281 283 285 286 289 292 294 294 295 295 296 301 304 307 313 317 318 316 314 312 309 308 308 310 311 311 314 316 317 321 325 322 326 338 339 339 346 344 341 347 350 351 352 350 348 347 347 350 352 353 356 357 360 2 2 2 3 4 10 17 19 18 15 14 14 17 18 19
270 270 270 272 274 275 277 279 280 281 283 286 287 288 289 289 291 295 299 302 305 308 308 305 302 301 300 298 299 303 303 302 303 305 310 316 318 315 318 330 333 329 333 334 333 337 341 343 344 342 341 340 342 345 347 347 349 349 351 353 352 352 354 354 357 6 14 16 14 11 9 8 9 11
270 270 272 274 276 276 276 279 281 282 283 284 285 286 288 290 290 292 295 298 301 301 301 298 295 294 294 294 297 300 299 299 300 300 303 310 313 311 313 322 325 320 319 321 323 327 332 335 336 334 333 334 337 340 341 340 341 341 342 343 342 343 345 346 348 353 1 7 10 9 7 5 3 2
269 270 271 273 275 276 279 281 283 282 282 283 285 287 289 291 293 294 295 296 297 297 296 294 292 290 290 291 294 294 293 295 299 301 303 306 307 308 311 316 319 314 310 312 317 322 326 331 330 327 326 329 332 334 334 333 333 334 334 333 331 332 334 335 338 344 350 355 360 2 3 3 1 359
268 269 270 271 272 275 278 281 282 281 282 282 283 283 284 286 288 290 290 291 292 294 295 294 292 290 290 290 290 288 288 290 294 297 301 305 306 307 310 314 317 316 312 312 316 319 321 324 324 321 322 325 329 331 331 331 329 328 327 325 323 323 324 324 327 335 341 345 348 352 354 356 355 354
270 271 272 273 274 276 277 278 279 280 281 281 282 282 282 283 285 285 285 286 289 291 293 294 292 292 293 292 288 286 286 288 291 293 297 301 305 308 309 309 313 318 319 317 318 319 319 319 319 318 319 321 325 329 330 330 329 326 323 322 320 319 318 319 322 327 333 337 340 343 346 347 347 345
271 272 274 277 278 279 279 278 279 279 279 280 281 282 282 283 284 284 284 284 287 290 291 292 291 293 295 293 289 287 286 286 289 292 295 298 301 303 302 299 301 308 312 313 314 315 315 315 315 314 315 317 319 322 323 323 323 322 319 317 316 315 315 318 321 324 327 330 334 337 337 336 336 334
268 270 273 276 278 281 282 283 283 282 281 280 280 281 281 281 282 282 283 283 285 288 289 290 289 291 293 293 289 286 285 285 286 288 290 293 296 298 298 295 294 297 300 301 302 303 305 307 308 308 309 310 311 313 313 314 313 312 309 307 307 308 309 311 312 314 317 321 325 327 325 322 322 321
267 269 270 272 276 279 282 285 286 285 284 283 282 282 281 281 281 281 282 282 284 285 287 287 287 288 290 290 288 285 284 283 283 282 283 286 290 293 295 295 294 294 296 295 294 294 295 298 299 300 302 303 305 306 307 307 306 303 301 299 300 301 302 302 302 304 306 310 313 314 312 310 309 310
270 271 272 275 278 281 283 286 287 287 286 284 283 282 282 282 282 282 281 281 281 283 284 285 286 286 287 286 286 285 285 284 283 282 281 283 286 289 290 290 291 293 294 293 291 290 290 291 291 292 294 296 298 299 301 301 300 299 298 298 299 299 299 299 298 300 301 303 303 302 302 301 301 301
272 275 279 282 284 284 284 285 286 287 287 286 284 281 279 280 280 281 280 280 280 280 281 281 282 283 284 284 283 283 283 283 285 285 285 284 284 284 284 285 287 290 291 290 289 289 288 288 288 288 289 290 291 292 294 294 294 295 296 297 297 297 297 298 299 300 300 300 299 298 297 297 297 296
267 269 272 274 277 280 281 282 283 284 284 285 285 283 280 278 278 280 281 281 281 281 280 279 279 281 282 282 281 280 279 280 281 284 286 287 286 284 283 283 284 285 286 286 288 288 288 289 289 288 288 288 289 290 291 290 290 291 292 293 294 294 295 297 298 299 299 299 299 298 296 295 294 293
266 268 269 270 272 276 278 278 278 279 281 282 282 282 282 282 281 282 282 281 280 280 280 280 279 280 281 280 278 277 277 276 277 280 282 283 284 285 284 284 284 283 282 283 284 285 287 288 289 289 288 287 288 290 291 290 289 288 288 288 290 291 293 294 295 296 297 297 297 297 296 294 293 291
267 268 269 270 273 277 278 277 274 274 277 279 279 278 279 280 281 282 283 283 281 279 278 279 279 279 279 278 277 276 275 275 276 277 279 280 281 282 282 283 285 284 282 281 281 282 284 286 287 288 288 287 287 287 287 287 286 286 285 286 287 288 289 290 291 292 294 294 295 295 295 294 292 291
270 270 271 273 276 279 279 277 274 273 273 274 275 275 275 276 276 276 280 283 283 281 279 276 275 277 278 277 276 276 275 274 274 275 276 277 278 279 279 281 283 283 282 281 281 281 283 285 286 286 286 286 286 285 283 283 282 282 282 283 284 285 286 286 287 287 288 290 291 292 294 294 293 292
274 275 276 278 279 280 280 279 276 273 271 270 269 270 272 273 272 270 272 275 280 284 284 278 272 271 274 274 274 274 273 271 271 271 272 274 275 276 277 278 280 281 281 281 281 280 280 282 283 284 285 285 284 283 281 280 281 281 281 282 282 283 283 284 285 285 286 287 288 289 291 292 293 293
275 276 277 278 279 280 279 278 276 274 272 270 267 268 271 272 270 268 268 270 273 278 283 282 275 268 268 271 272 271 270 269 268 268 269 270 272 274 276 277 278 278 278 278 278 277 276 276 279 281 283 283 283 282 281 281 283 285 287 288 288 287 287 287 287 287 288 288 288 289 290 291 292 292
273 275 278 281 283 283 280 278 276 275 273 269 267 268 270 269 268 267 268 269 270 272 277 281 280 271 267 268 270 269 268 268 267 267 267 269 271 274 276 277 277 275 274 273 273 274 274 275 276 277 279 281 283 284 284 284 286 288 290 291 292 291 291 291 291 291 290 290 290 290 291 291 291 292
269 273 278 282 285 284 279 276 275 273 269 267 268 270 269 266 266 267 268 269 271 273 274 277 280 277 271 267 266 265 266 266 266 267 269 271 273 275 276 276 274 272 270 270 270 271 272 273 275 277 278 281 283 285 286 287 287 288 289 290 291 291 291 291 292 292 292 292 292 291 291 291 291 291
268 271 274 278 281 278 271 269 270 268 266 269 272 273 270 267 267 269 268 268 270 273 273 274 276 277 274 268 264 263 264 265 266 268 269 271 273 274 273 271 270 269 268 268 267 267 268 270 272 275 278 280 282 284 286 287 288 288 288 289 289 290 290 291 291 291 291 291 291 291 291 291 291 291
271 271 270 271 274 274 271 270 267 264 272 282 283 281 279 275 273 271 268 267 269 271 271 270 270 272 272 269 264 263 264 265 267 269 270 270 270 270 268 267 266 266 266 265 266 266 267 269 271 273 275 278 280 282 284 285 286 287 288 288 288 288 289 289 290 290 290 290 290 290 290 290 290 290
273 272 268 263 263 266 271 274 269 266 276 286 285 284 281 277 274 273 270 270 270 270 270 268 267 270 273 270 266 264 264 265 267 268 268 268 268 266 265 263 263 264 265 265 265 266 267 269 271 272 273 274 275 277 278 279 280 281 283 284 285 286 286 286 286 287 287 287 288 287 287 288 288 288
271 270 266 261 259 261 264 266 264 264 271 276 277 278 276 274 274 274 270 267 265 263 263 264 264 264 265 264 263 262 262 262 262 261 262 264 264 262 261 261 262 264 265 265 265 266 267 269 271 272 272 273 273 274 275 276 276 276 277 278 280 281 282 282 282 283 283 284 284 285 285 285 285 285
271 270 268 264 263 264 265 264 266 270 274 275 275 275 275 274 275 272 268 264 260 256 255 256 257 256 255 256 258 259 259 258 257 258 259 260 259 257 257 259 263 264 265 265 266 266 267 269 270 271 273 273 274 274 274 275 275 275 275 275 276 277 278 279 279 280 280 281 282 283 283 284 284 284
268 269 269 268 266 267 268 269 272 276 279 278 276 276 276 277 277 274 270 266 261 256 253 253 253 254 253 253 254 256 256 255 255 257 258 258 257 255 255 258 261 262 263 264 266 267 268 270 271 273 273 274 275 275 274 274 274 275 275 275 276 276 276 276 277 277 278 278 279 280 281 281 282 283
266 265 266 267 267 268 269 270 273 276 278 279 280 280 280 279 278 277 275 271 267 263 260 256 252 251 252 253 254 255 257 258 259 259 259 258 256 254 253 256 258 260 262 264 266 269 271 272 273 274 274 275 276 276 276 276 276 276 276 276 277 277 277 277 277 277 277 278 278 279 280 280 281 282
268 266 265 265 266 267 268 271 273 275 277 279 280 279 278 277 276 274 273 272 270 267 265 262 256 253 254 257 258 258 260 261 261 260 259 257 255 253 254 256 259 260 262 265 268 270 272 273 274 275 275 276 276 277 278 278 278 278 279 279 279 279 279 280 280 280 280 280 280 281 282 282 282 282
269 269 268 267 267 267 268 270 272 274 275 276 276 274 272 273 273 271 269 269 269 268 267 265 260 256 255 257 258 259 260 260 260 259 258 257 256 257 257 258 260 261 264 267 269 271 272 273 274 275 277 278 279 279 280 280 280 280 281 281 281 281 281 281 282 282 283 283 283 284 284 285 285 285
269 269 269 269 269 269 269 269 269 270 272 273 273 272 271 270 270 269 267 266 265 266 266 267 265 262 260 260 260 260 261 261 261 260 260 260 260 261 261 261 262 264 266 268 270 271 272 273 275 276 277 279 280 281 282 282 282 282 282 282 282 282 282 282 283 284 285 285 285 285 285 286 286 286
268 268 269 269 270 270 269 269 268 269 269 270 270 269 269 268 267 267 267 267 266 266 267 268 268 267 265 264 264 264 265 266 265 264 264 264 264 265 265 266 267 268 269 271 272 274 275 276 276 277 277 278 279 280 281 282 282 282 282 282 283 283 283 284 284 285 286 286 286 286 286 286 287 287
267 268 268 269 269 270 270 269 269 269 269 269 269 268 266 265 265 266 267 267 268 268 268 268 269 268 268 268 268 268 269 269 267 266 266 266 267 268 269 270 271 272 273 274 275 276 276 276 277 277 277 277 277 278 279 280 281 281 281 282 282 283 284 284 285 286 286 287 287 287 287 287 287 287
266 267 267 268 268 269 270 270 270 270 269 269 268 268 267 266 266 266 267 267 268 268 268 268 268 269 270 270 271 270 269 268 266 266 268 270 271 271 272 274 275 275 276 276 276 276 276 276 277 277 277 277 277 277 278 278 280 281 281 281 282 282 283 283 284 284 285 285 286 286 286 286 286 286
266 266 266 266 267 267 268 269 269 270 270 269 269 268 268 267 266 266 265 266 267 267 267 266 266 267 268 269 269 268 267 266 268 270 271 272 272 272 273 274 274 275 275 275 276 276 276 276 276 276 277 277 277 278 278 279 280 280 281 281 281 282 282 282 282 283 283 283 284 284 285 285 285 286
267 267 266 266 266 266 266 267 268 268 268 268 268 267 267 266 265 265 264 263 264 265 266 266 265 265 265 266 266 266 267 269 271 273 273 273 273 273 273 274 274 274 274 275 275 275 276 276 277 277 278 278 279 279 279 280 280 281 281 281 282 282 282 282 282 282 282 282 283 283 283 283 284 284
268 268 268 267 267 267 266 266 266 267 267 267 267 266 265 264 263 263 263 263 264 264 265 266 266 266 265 265 266 266 268 270 272 273 273 273 273 273 273 273 273 274 274 274 275 276 276 277 278 278 279 279 279 280 280 281 281 281 282 282 283 283 284 284 285 285 285 284 284 284 284 284 283 283
270 269 269 269 268 268 268 267 267 267 267 267 267 267 267 266 265 264 264 265 265 265 266 267 267 268 268 268 269 269 269 270 271 272 273 273 273 274 274 274 274 274 274 274 275 276 276 277 278 278 278 279 279 279 280 280 281 281 282 283 283 284 285 285 285 285 285 285 285 285 284 284 284 284
271 270 270 270 269 269 269 269 268 268 268 268 268 268 268 268 268 267 266 266 266 266 267 267 267 267 267 268 268 268 268 269 269 270 271 272 272 273 273 273 273 273 274 274 275 276 277 277 278 278 279 279 279 280 280 281 281 282 283 283 283 284 284 284 285 285 286 286 286 286 286 286 286 286
271 271 271 270 270 270 270 269 269 269 269 269 269 269 269 269 269 268 268 267 267 267 267 267 267 268 268 268 268 268 268 268 268 269 270 271 271 272 273 273 274 275 276 276 277 278 278 279 279 279 280 280 281 281 281 282 282 283 283 283 284 284 284 284 285 285 286 286 287 287 287 288 288 288
Height
5949 5950 5950 5950 5950 5950 5949 5949 5949 5949 5949 5948 5948 5948 5948 5948 5948 5948 5948 5948 5947 5947 5946 5946 5946 5945 5945 5944 5943 5943 5942 5942 5941 5940 5939 5939 5938 5937 5935 5934 5933 5931 5930 5929 5928 5927 5925 5924 5923 5923 5922 5921 5920 5919 5917 5916 5915 5914 5912 5910 5909 5908 5906 5905 5904 5902 5901 5899 5897 5896 5895 5894 5893 5892
5949 5949 5950 5949 5949 5949 5949 5949 5948 5948 5948 5948 5948 5947 5947 5947 5947 5947 5947 5947 5946 5946 5945 5945 5945 5945 5944 5943 5943 5942 5942 5942 5941 5940 5939 5939 5938 5937 5935 5934 5933 5931 5930 5929 5928 5927 5926 5925 5924 5923 5923 5922 5920 5919 5918 5917 5916 5914 5913 5911 5910 5909 5908 5906 5905 5904 5903 5901 5900 5898 5897 5895 5895 5894
5949 5949 5949 5949 5949 5948 5948 5948 5947 5947 5947 5947 5947 5947 5946 5946 5946 5945 5945 5945 5945 5945 5945 5944 5944 5944 5943 5942 5942 5942 5941 5941 5941 5940 5939 5939 5938 5936 5935 5934 5933 5931 5930 5929 5928 5927 5926 5925 5924 5924 5923 5922 5921 5920 5918 5917 5916 5915 5914 5912 5911 5910 5909 5908 5906 5905 5904 5903 5902 5900 5899 5898 5896 5896
5948 5948 5948 5948 5948 5947 5947 5946 5946 5946 5946 5946 5946 5946 5946 5945 5945 5944 5944 5944 5944 5944 5944 5944 5943 5943 5942 5941 5941 5941 5941 5940 5940 5939 5939 5938 5937 5936 5934 5933 5932 5931 5930 5929 5928 5927 5926 5925 5924 5924 5923 5922 5921 5920 5919 5918 5917 5916 5914 5913 5912 5911 5910 5909 5907 5906 5905 5904 5903 5902 5901 5900 5899 5898
5947 5947 5947 5947 5946 5946 5946 5946 5946 5946 5946 5946 5946 5945 5945 5945 5944 5944 5944 5943 5943 5943 5943 5943 5942 5941 5941 5940 5940 5940 5940 5939 5939 5939 5938 5938 5936 5935 5934 5933 5932 5931 5930 5929 5928 5927 5926 5925 5924 5923 5923 5922 5921 5920 5919 5918 5917 5916 5915 5914 5913 5912 5911 5910 5908 5907 5906 5905 5904 5903 5902 5902 5901 5900
5946 5946 5946 5946 5946 5946 5946 5945 5945 5945 5945 5945 5945 5945 5944 5944 5944 5944 5943 5943 5943 5942 5942 5942 5941 5941 5940 5939 5939 5939 5939 5938 5938 5938 5937 5937 5936 5934 5934 5933 5932 5931 5930 5928 5927 5927 5926 5925 5924 5923 5923 5921 5920 5920 5919 5918 5917 5917 5916 5915 5913 5913 5912 5911 5909 5907 5906 5905 5904 5904 5903 5902 5902 5901
5945 5945 5945 5945 5945 5945 5945 5945 5945 5945 5944 5944 5944 5944 5944 5944 5943 5943 5943 5943 5942 5942 5942 5941 5941 5940 5940 5939 5939 5939 5938 5937 5937 5937 5937 5936 5935 5934 5933 5932 5931 5930 5929 5928 5927 5926 5925 5925 5924 5923 5922 5921 5920 5919 5919 5918 5917 5917 5916 5915 5914 5913 5912 5911 5910 5909 5907 5906 5905 5904 5903 5903 5902 5902
5945 5945 5944 5944 5944 5944 5944 5944 5944 5944 5944 5943 5943 5943 5943 5943 5943 5942 5942 5942 5942 5942 5941 5940 5940 5940 5939 5939 5938 5938 5938 5937 5936 5936 5935 5935 5934 5933 5932 5932 5931 5929 5929 5928 5926 5926 5925 5924 5924 5923 5922 5921 5920 5919 5918 5917 5917 5916 5916 5915 5914 5914 5913 5912 5911 5910 5908 5907 5906 5905 5904 5903 5902 5902
5944 5944 5944 5943 5943 5943 5943 5943 5943 5943 5943 5942 5942 5942 5942 5942 5942 5941 5941 5941 5941 5941 5940 5940 5939 5939 5939 5938 5938 5937 5937 5936 5935 5935 5935 5934 5932 5931 5931 5931 5930 5928 5928 5927 5926 5925 5924 5924 5923 5922 5921 5920 5919 5919 5918 5917 5916 5916 5915 5915 5914 5913 5913 5912 5911 5910 5909 5908 5906 5906 5905 5904 5903 5902
5943 5943 5942 5942 5942 5942 5942 5942 5942 5942 5941 5941 5941 5941 5941 5941 5940 5940 5940 5940 5940 5940 5939 5939 5939 5938 5938 5937 5937 5937 5936 5934 5934 5933 5934 5933 5932 5930 5929 5930 5929 5927 5926 5926 5925 5924 5923 5923 5922 5921 5920 5919 5919 5918 5917 5917 5916 5916 5915 5914 5914 5913 5912 5911 5910 5909 5908 5907 5907 5906 5905 5904 5904 5903
5942 5941 5941 5941 5941 5941 5941 5941 5940 5940 5940 5940 5940 5940 5940 5939 5939 5939 5939 5939 5939 5938 5938 5938 5937 5937 5937 5937 5936 5936 5935 5933 5932 5931 5931 5932 5931 5929 5927 5928 5928 5926 5925 5924 5924 5923 5922 5921 5921 5920 5919 5918 5918 5918 5917 5916 5916 5915 5914 5914 5913 5912 5911 5911 5910 5909 5908 5907 5906 5906 5905 5905 5904 5903
5940 5940 5940 5940 5940 5940 5940 5939 5939 5939 5939 5938 5938 5938 5938 5938 5938 5938 5938 5938 5937 5937 5937 5937 5936 5936 5936 5935 5935 5934 5933 5932 5931 5930 5929 5929 5930 5929 5927 5926 5926 5925 5924 5923 5922 5921 5920 5920 5919 5918 5918 5917 5917 5917 5916 5916 5915 5914 5914 5913 5912 5911 5910 5909 5909 5908 5907 5906 5905 5905 5905 5904 5904 5903
5938 5938 5938 5938 5938 5938 5938 5938 5937 5937 5937 5937 5937 5937 5936 5936 5936 5936 5936 5936 5936 5936 5936 5935 5935 5935 5934 5934 5933 5932 5931 5930 5929 5928 5927 5927 5927 5927 5926 5924 5924 5924 5923 5921 5921 5920 5919 5918 5918 5917 5916 5916 5916 5916 5916 5915 5914 5913 5912 5911 5910 5909 5908 5908 5907 5907 5906 5905 5905 5904 5904 5903 5903 5902
5935 5935 5936 5936 5936 5936 5936 5935 5935 5935 5935 5935 5934 5934 5935 5934 5934 5934 5934 5934 5934 5934 5934 5934 5933 5933 5933 5932 5931 5930 5929 5928 5928 5927 5926 5925 5925 5925 5924 5923 5922 5922 5921 5920 5919 5918 5918 5917 5916 5916 5915 5914 5914 5914 5914 5914 5913 5912 5911 5910 5909 5908 5907 5907 5906 5905 5905 5904 5904 5904 5903 5902 5901 5901
5932 5933 5933 5933 5933 5933 5933 5933 5933 5933 5932 5932 5932 5931 5932 5932 5932 5932 5932 5931 5931 5931 5931 5931 5931 5931 5931 5931 5930 5929 5927 5926 5926 5925 5924 5923 5923 5922 5922 5921 5920 5920 5919 5918 5917 5917 5916 5916 5915 5914 5914 5913 5913 5912 5912 5912 5911 5910 5909 5908 5908 5907 5906 5906 5905 5904 5903 5903 5903 5902 5902 5901 5900 5900
5929 5930 5930 5930 5931 5931 5931 5931 5930 5930 5930 5929 5929 5929 5929 5929 5929 5929 5929 5929 5928 5928 5928 5928 5929 5929 5928 5928 5928 5927 5926 5925 5924 5924 5923 5922 5921 5921 5920 5919 5917 5917 5917 5916 5915 5914 5914 5914 5913 5913 5912 5912 5911 5911 5910 5909 5909 5908 5908 5907 5906 5906 5905 5904 5903 5902 5902 5901 5901 5901 5900 5899 5898 5898
5926 5927 5927 5927 5928 5928 5928 5928 5928 5928 5928 5927 5927 5926 5926 5926 5926 5926 5926 5926 5926 5925 5925 5925 5926 5926 5926 5925 5926 5925 5924 5923 5922 5921 5921 5920 5920 5919 5918 5917 5915 5914 5914 5913 5912 5911 5911 5911 5911 5911 5911 5910 5909 5909 5908 5907 5906 5906 5905 5905 5904 5904 5903 5902 5901 5901 5900 5900 5899 5898 5898 5897 5896 5896
5923 5923 5924 5924 5924 5924 5924 5924 5924 5924 5924 5924 5924 5924 5923 5923 5923 5923 5923 5922 5922 5922 5922 5922 5922 5923 5923 5923 5923 5923 5922 5921 5920 5919 5918 5918 5918 5917 5916 5915 5914 5913 5911 5910 5909 5908 5907 5908 5908 5908 5908 5908 5907 5906 5906 5905 5904 5903 5903 5903 5902 5902 5901 5900 5899 5899 5898 5898 5897 5896 5895 5895 5894 5894
5920 5920 5920 5920 5921 5921 5920 5920 5920 5920 5920 5920 5920 5920 5920 5920 5920 5920 5919 5919 5919 5919 5919 5919 5919 5919 5920 5920 5920 5920 5919 5919 5918 5917 5916 5915 5915 5915 5914 5913 5912 5911 5909 5908 5906 5905 5904 5905 5905 5905 5905 5906 5905 5904 5903 5903 5902 5901 5901 5901 5900 5899 5899 5898 5897 5897 5896 5896 5895 5894 5894 5893 5892 5891
5917 5917 5917 5917 5918 5918 5917 5917 5916 5916 5916 5916 5916 5916 5916 5916 5916 5916 5916 5916 5916 5916 5916 5915 5915 5915 5915 5916 5916 5916 5916 5915 5914 5914 5913 5912 5912 5912 5911 5911 5910 5908 5906 5905 5904 5902 5900 5901 5902 5902 5901 5902 5902 5902 5901 5900 5899 5898 5898 5898 5897 5897 5896 5895 5895 5894 5894 5893 5893 5892 5891 5891 5890 5889
5914 5914 5914 5914 5914 5913 5913 5913 5913 5912 5912 5911 5912 5912 5912 5911 5912 5912 5911 5911 5911 5912 5912 5912 5911 5911 5911 5911 5911 5912 5912 5911 5910 5910 5909 5909 5908 5908 5908 5907 5907 5905 5903 5902 5901 5899 5898 5897 5898 5898 5898 5898 5899 5899 5898 5897 5896 5896 5895 5895 5894 5894 5893 5892 5892 5891 5891 5890 5890 5889 5889 5888 5888 5888
5910 5910 5910 5909 5909 5908 5908 5907 5907 5907 5907 5906 5906 5907 5907 5907 5907 5907 5907 5907 5907 5907 5907 5907 5907 5907 5906 5906 5907 5907 5907 5907 5906 5906 5905 5905 5905 5904 5904 5904 5903 5902 5900 5899 5899 5897 5896 5894 5894 5894 5894 5894 5895 5895 5894 5894 5893 5892 5892 5892 5892 5891 5890 5889 5889 5888 5887 5887 5886 5886 5885 5885 5885 5885
5905 5905 5905 5904 5904 5903 5902 5902 5901 5901 5901 5901 5901 5901 5902 5902 5902 5902 5902 5902 5902 5902 5902 5902 5903 5903 5902 5901 5902 5902 5902 5902 5902 5901 5901 5901 5900 5900 5900 5900 5900 5898 5897 5896 5896 5895 5894 5892 5891 5891 5891 5891 5891 5891 5891 5890 5889 5889 5889 5889 5889 5888 5888 5887 5886 5885 5884 5883 5883 5882 5882 5881 5881 5881
5901 5901 5901 5900 5899 5899 5898 5897 5896 5895 5895 5895 5895 5895 5896 5897 5897 5897 5897 5897 5898 5898 5898 5898 5898 5898 5898 5897 5897 5897 5897 5897 5897 5897 5896 5896 5896 5896 5896 5896 5896 5895 5894 5892 5892 5891 5891 5890 5889 5889 5888 5887 5887 5887 5887 5887 5886 5886 5885 5885 5884 5884 5883 5883 5882 5881 5881 5880 5880 5879 5878 5877 5877 5876
5897 5897 5896 5895 5895 5895 5894 5892 5890 5889 5890 5890 5890 5890 5891 5891 5891 5891 5892 5892 5893 5893 5894 5894 5894 5894 5893 5893 5893 5893 5892 5892 5892 5892 5892 5892 5892 5892 5892 5892 5892 5891 5890 5889 5888 5888 5887 5887 5887 5886 5886 5885 5884 5884 5884 5883 5883 5883 5882 5881 5880 5879 5878 5878 5877 5877 5876 5876 5876 5875 5875 5874 5873 5872
5893 5892 5891 5891 5890 5889 5888 5887 5885 5883 5883 5883 5884 5885 5885 5886 5886 5886 5887 5887 5888 5890 5890 5890 5890 5890 5889 5888 5888 5888 5888 5887 5887 5887 5887 5887 5887 5887 5887 5888 5888 5887 5886 5885 5884 5884 5884 5884 5883 5883 5883 5882 5882 5881 5881 5880 5879 5879 5879 5878 5877 5876 5875 5873 5872 5872 5871 5871 5870 5870 5870 5870 5869 5868
5887 5887 5886 5886 5885 5884 5884 5882 5879 5878 5878 5878 5878 5879 5880 5880 5880 5881 5882 5883 5884 5885 5886 5885 5885 5884 5884 5883 5884 5883 5883 5882 5882 5882 5883 5882 5882 5882 5882 5883 5883 5882 5882 5881 5880 5880 5880 5880 5880 5879 5879 5878 5878 5877 5877 5876 5875 5874 5874 5874 5873 5872 5871 5870 5869 5868 5867 5866 5865 5865 5864 5864 5864 5863
5881 5881 5882 5881 5880 5880 5880 5878 5875 5875 5876 5875 5874 5874 5874 5875 5875 5876 5877 5878 5879 5879 5880 5879 5879 5879 5878 5878 5879 5879 5878 5877 5877 5878 5877 5877 5877 5878 5878 5878 5878 5878 5878 5877 5877 5876 5876 5876 5876 5876 5875 5874 5873 5873 5872 5872 5871 5870 5868 5868 5869 5868 5867 5866 5865 5864 5863 5862 5861 5860 5859 5858 5858 5857
5876 5876 5876 5876 5875 5875 5875 5874 5873 5873 5873 5871 5870 5870 5870 5870 5871 5872 5872 5873 5873 5874 5874 5873 5873 5873 5873 5873 5873 5873 5873 5873 5873 5872 5871 5872 5873 5873 5873 5873 5874 5874 5874 5874 5873 5873 5872 5872 5872 5872 5871 5870 5869 5869 5868 5868 5867 5866 5865 5864 5863 5863 5863 5862 5861 5860 5858 5857 5856 5855 5854 5854 5853 5852
5871 5871 5871 5871 5870 5870 5870 5870 5870 5869 5868 5868 5868 5868 5868 5867 5866 5866 5867 5868 5868 5869 5870 5869 5867 5867 5867 5867 5867 5867 5867 5867 5867 5866 5866 5867 5868 5868 5868 5869 5869 5869 5870 5870 5870 5869 5868 5867 5867 5867 5866 5866 5865 5865 5864 5863 5862 5862 5861 5861 5860 5859 5858 5857 5856 5855 5854 5852 5851 5850 5849 5848 5847 5846
5866 5866 5866 5866 5866 5865 5864 5865 5864 5864 5863 5864 5864 5864 5863 5863 5862 5861 5861 5862 5862 5863 5863 5863 5862 5861 5861 5861 5861 5861 5862 5862 5862 5861 5861 5862 5863 5863 5863 5864 5864 5864 5865 5865 5865 5864 5864 5863 5862 5861 5861 5860 5860 5859 5859 5858 5857 5856 5856 5856 5855 5855 5854 5852 5851 5849 5848 5847 5846 5844 5842 5841 5840 5839
5862 5862 5862 5862 5862 5861 5859 5859 5859 5858 5858 5859 5859 5859 5859 5858 5857 5856 5856 5856 5856 5856 5856 5856 5856 5856 5855 5855 5855 5856 5856 5856 5856 5856 5856 5856 5857 5857 5857 5858 5858 5858 5859 5859 5858 5858 5858 5857 5856 5855 5854 5854 5853 5853 5852 5851 5851 5850 5850 5849 5849 5848 5848 5847 5845 5844 5843 5841 5840 5838 5836 5834 5833 5832
5856 5857 5857 5857 5857 5856 5855 5854 5853 5853 5852 5853 5853 5853 5853 5852 5852 5851 5851 5851 5851 5851 5851 5851 5851 5850 5850 5850 5850 5850 5850 5850 5850 5850 5850 5850 5851 5851 5851 5851 5852 5852 5852 5852 5852 5851 5851 5851 5850 5849 5848 5847 5846 5845 5844 5844 5844 5843 5843 5842 5842 5841 5840 5839 5838 5837 5836 5835 5834 5832 5830 5828 5827 5825
5850 5851 5851 5851 5851 5850 5849 5848 5847 5847 5847 5847 5847 5846 5846 5846 5846 5846 5846 5846 5846 5846 5846 5846 5846 5846 5845 5845 5845 5845 5845 5844 5844 5844 5844 5844 5844 5844 5844 5845 5845 5845 5846 5846 5845 5845 5844 5844 5843 5842 5841 5841 5840 5839 5838 5837 5836 5836 5836 5835 5834 5833 5832 5831 5830 5829 5828 5827 5826 5825 5824 5821 5820 5818
5844 5844 5844 5844 5844 5844 5844 5843 5842 5841 5841 5841 5841 5841 5840 5840 5840 5840 5840 5840 5840 5840 5840 5841 5841 5841 5841 5840 5840 5840 5839 5839 5838 5838 5837 5837 5837 5838 5838 5838 5838 5839 5839 5839 5839 5838 5837 5836 5836 5835 5834 5833 5832 5831 5830 5829 5829 5829 5828 5827 5825 5825 5824 5823 5821 5820 5819 5817 5817 5816 5815 5813 5811 5809
5838 5837 5837 5837 5837 5837 5837 5837 5837 5836 5836 5835 5835 5835 5835 5835 5835 5835 5834 5834 5834 5834 5834 5834 5835 5835 5834 5834 5834 5834 5833 5833 5832 5832 5831 5831 5831 5831 5831 5831 5832 5832 5832 5832 5831 5831 5830 5829 5828 5828 5827 5826 5824 5823 5821 5820 5819 5819 5819 5817 5816 5815 5814 5813 5812 5810 5808 5807 5807 5806 5805 5803 5801 5799
5831 5831 5830 5830 5829 5829 5830 5830 5830 5830 5829 5829 5829 5829 5829 5829 5829 5829 5828 5828 5828 5828 5828 5828 5828 5828 5828 5828 5827 5827 5827 5826 5826 5826 5825 5825 5825 5825 5824 5824 5824 5824 5824 5824 5823 5823 5822 5821 5821 5820 5820 5819 5818 5816 5814 5812 5810 5809 5809 5808 5806 5806 5805 5803 5802 5800 5798 5797 5796 5795 5794 5793 5791 5789
5824 5823 5823 5823 5822 5822 5822 5822 5822 5822 5823 5823 5823 5823 5823 5823 5822 5822 5822 5822 5822 5822 5822 5822 5821 5821 5821 5821 5821 5820 5820 5819 5819 5819 5818 5818 5818 5817 5817 5817 5816 5816 5815 5815 5815 5815 5814 5813 5813 5812 5812 5811 5810 5809 5808 5805 5803 5801 5800 5799 5797 5797 5795 5794 5792 5791 5789 5788 5786 5785 5784 5782 5781 5779
5815 5815 5815 5815 5815 5815 5815 5814 5814 5814 5815 5815 5815 5816 5816 5816 5816 5816 5816 5815 5815 5815 5816 5815 5815 5815 5814 5814 5813 5813 5812 5812 5812 5811 5811 5810 5810 5810 5809 5808 5808 5807 5807 5806 5806 5806 5805 5804 5804 5803 5803 5802 5801 5800 5800 5798 5796 5794 5792 5790 5789 5788 5787 5785 5784 5782 5781 5779 5778 5776 5774 5772 5770 5769
5806 5806 5806 5806 5807 5807 5807 5807 5807 5807 5807 5807 5807 5807 5808 5808 5808 5808 5808 5808 5807 5807 5808 5808 5808 5807 5807 5806 5806 5805 5805 5804 5804 5803 5803 5802 5801 5801 5800 5800 5799 5798 5798 5797 5797 5796 5795 5795 5794 5794 5793 5792 5792 5790 5789 5788 5787 5785 5783 5781 5780 5779 5777 5776 5775 5774 5772 5771 5769 5767 5765 5763 5761 5758
5797 5797 5797 5797 5798 5798 5798 5798 5799 5799 5799 5799 5799 5799 5799 5799 5799 5799 5799 5799 5799 5799 5799 5799 5799 5799 5798 5798 5798 5797 5797 5796 5795 5795 5794 5794 5793 5792 5791 5791 5790 5789 5788 5788 5787 5786 5785 5785 5784 5783 5783 5782 5781 5780 5779 5778 5776 5774 5772 5771 5769 5768 5766 5765 5764 5763 5762 5761 5759 5757 5756 5754 5751 5749
5787 5787 5788 5788 5788 5788 5789 5789 5789 5790 5790 5790 5790 5790 5791 5791 5791 5791 5791 5791 5790 5790 5790 5790 5790 5789 5789 5789 5789 5788 5788 5787 5786 5786 5785 5784 5784 5783 5782 5781 5781 5780 5779 5778 5777 5776 5775 5775 5774 5773 5772 5772 5771 5769 5768 5767 5765 5764 5762 5760 5759 5757 5755 5753 5751 5750 5749 5748 5747 5745 5744 5743 5740 5738
5778 5778 5778 5779 5779 5779 5779 5780 5780 5780 5780 5781 5781 5781 5781 5782 5782 5782 5782 5782 5782 5781 5781 5781 5781 5781 5780 5780 5780 5780 5779 5778 5777 5776 5775 5775 5774 5773 5773 5772 5771 5770 5770 5769 5768 5767 5766 5765 5764 5763 5762 5761 5760 5759 5758 5756 5755 5753 5752 5751 5749 5747 5745 5742 5740 5737 5736 5735 5733 5732 5731 5729 5727 5724
5768 5768 5769 5769 5769 5769 5770 5770 5770 5771 5771 5771 5771 5771 5772 5772 5772 5772 5772 5772 5772 5772 5772 5772 5771 5771 5771 5771 5770 5770 5769 5769 5768 5767 5766 5765 5765 5764 5763 5762 5761 5760 5760 5759 5758 5756 5755 5755 5754 5753 5752 5751 5750 5749 5747 5746 5744 5743 5741 5740 5738 5736 5734 5732 5729 5726 5723 5721 5720 5718 5716 5714 5712 5710
5758 5759 5759 5759 5759 5760 5760 5760 5760 5761 5761 5761 5762 5762 5762 5762 5762 5762 5762 5762 5762 5762 5762 5762 5761 5761 5761 5760 5760 5759 5759 5758 5758 5757 5756 5755 5754 5754 5753 5752 5751 5750 5749 5749 5748 5746 5745 5744 5743 5742 5741 5740 5739 5738 5736 5735 5733 5732 5730 5729 5727 5725 5723 5721 5719 5716 5713 5710 5708 5705 5703 5700 5698 5695